Weather reports worldwide

Advertisment
Cannes, France (7684): temperature & dewpoint: 11.10.2018 08:00:00 - 17.10.2018 08:00:00 (CEST)Cannes, France (7684): temperature 5cm: 11.10.2018 08:00:00 - 17.10.2018 08:00:00 (CEST)Cannes, France (7684): wind speed & gusts: 11.10.2018 08:00:00 - 17.10.2018 08:00:00 (CEST)Cannes, France (7684): wind direction: 11.10.2018 08:00:00 - 17.10.2018 08:00:00 (CEST)Cannes, France (7684): reduced air pressure: 11.10.2018 08:00:00 - 17.10.2018 08:00:00 (CEST)Cannes, France (7684): visibility: 11.10.2018 08:00:00 - 17.10.2018 08:00:00 (CEST)Cannes, France (7684): precipitation: 11.10.2018 08:00:00 - 17.10.2018 08:00:00 (CEST)
Date & Time tt [°C] td [°C] tt 5cm [°C] ff [km/h] ff [kn] fx [km/h] fx [kn] dd ppp [hPa] vv [km] rr [mm]
17.10.2018 08:00:00 16,7 14,7 15,7 4 2 11 6 N 1016,0 49 0,0
17.10.2018 07:00:00 16,6 14,8 15,5 5 3 10 6 NNW 1015,9 54 0,0
17.10.2018 06:00:00 16,4 14,9 15,9 7 4 14 8 N 1016,1 47 0,0
17.10.2018 05:00:00 16,3 15,2 15,9 3 2 10 6 N 1016,1 18 0,4
17.10.2018 04:00:00 16,3 15,2 15,9 5 3 10 5 N 1016,7 20 0,2
17.10.2018 03:00:00 16,6 15,0 15,9 4 2 7 4 NW 1017,2 20 0,0
17.10.2018 02:00:00 17,1 14,6 15,9 5 3 17 9 WNW 1017,4 14 0,4
17.10.2018 01:00:00 17,3 14,6 16,2 8 4 18 10 N 1017,6 38 0,0
17.10.2018 00:00:00 17,1 14,7 16,2 9 5 19 10 NNE 1017,8 20 0,2
16.10.2018 23:00:00 17,4 15,0 16,4 4 2 17 9 N 1018,2 14 0,0
16.10.2018 22:00:00 18,1 14,4 16,9 4 2 11 6 WNW 1018,2 14 0,0
16.10.2018 21:00:00 19,3 13,2 18,0 5 3 18 10 NNE 1017,9 27 0,0
16.10.2018 20:00:00 18,5 14,8 17,9 4 2 10 6 NNE 1018,0 10 0,0
16.10.2018 19:00:00 19,4 13,3 18,1 0 0 6 4 N 1017,5 20 0,0
16.10.2018 18:00:00 19,4 12,9 18,6 7 4 14 7 NNW 1017,2 26 0,0
16.10.2018 17:00:00 20,2 12,9 19,8 0 0 8 4 N 1017,3 28 0,0
16.10.2018 16:00:00 20,6 12,6 21,8 3 2 16 9 E 1017,3 20 0,0
16.10.2018 15:00:00 20,4 13,8 21,7 6 4 18 10 NNE 1017,5 19 0,0
16.10.2018 14:00:00 19,6 14,0 19,2 5 3 18 10 N 1018,0 16 0,0
16.10.2018 13:00:00 18,7 15,4 18,5 4 2 10 5 NNW 1018,0 10 0,4
16.10.2018 12:00:00 17,4 15,4 16,4 3 1 11 6 N 1018,4 6 0,8
16.10.2018 11:00:00 16,7 13,8 15,3 6 3 22 12 N 1018,2 9 0,0
16.10.2018 10:00:00 15,7 13,7 15,0 10 5 16 9 N 1017,6 9 1,0
16.10.2018 09:00:00 16,4 11,8 15,1 3 2 13 7 N 1017,2 13 0,0
16.10.2018 08:00:00 16,8 11,1 15,6 6 3 9 5 N 1016,0 20 0,0
16.10.2018 07:00:00 16,6 10,9 15,7 5 3 10 5 N 1015,7 27 0,0
16.10.2018 06:00:00 16,5 10,8 15,5 4 2 9 5 NNE 1015,6 27 0,0
16.10.2018 05:00:00 16,5 10,8 15,6 5 3 11 6 N 1015,5 25 0,0
16.10.2018 04:00:00 16,6 10,9 16,0 7 4 11 6 N 1015,5 25 0,0
16.10.2018 03:00:00 17,0 11,3 16,3 7 4 11 6 NNE 1016,1 20 0,0
16.10.2018 02:00:00 17,7 11,3 16,7 5 3 12 6 NNE 1016,4 20 0,0
16.10.2018 01:00:00 17,9 11,5 17,0 8 4 15 8 N 1016,4 23 0,0
16.10.2018 00:00:00 18,8 11,4 17,7 8 4 15 8 N 1016,3 26 0,0
15.10.2018 23:00:00 22,9 7,0 20,5 9 5 26 14 E 1016,3 58 0,0
15.10.2018 22:00:00 22,7 8,4 18,9 7 4 32 17 E 1016,0 19 0,0
15.10.2018 21:00:00 22,2 10,0 19,0 9 5 41 22 E 1015,6 30 0,0
15.10.2018 20:00:00 22,8 8,9 21,3 13 7 39 21 E 1015,3 40 0,0
15.10.2018 19:00:00 22,7 9,1 21,1 15 8 35 19 E 1014,8 40 0,0
15.10.2018 18:00:00 22,6 10,1 21,5 14 8 37 20 ENE 1014,5 37 0,0
15.10.2018 17:00:00 22,7 10,8 22,2 16 9 35 19 E 1014,5 27 0,0
15.10.2018 16:00:00 22,5 11,2 22,2 13 7 45 24 ESE 1014,4 27 0,0
15.10.2018 15:00:00 22,4 11,2 22,2 16 9 36 19 E 1014,2 20 0,0
15.10.2018 14:00:00 23,0 11,1 23,5 13 7 41 22 E 1014,2 17 0,0
15.10.2018 13:00:00 23,3 11,4 23,5 16 8 37 20 E 1015,2 20 0,0
15.10.2018 12:00:00 22,9 9,7 22,7 18 10 43 23 E 1015,4 20 0,0
15.10.2018 11:00:00 22,5 10,6 20,1 15 8 39 21 E 1015,0 20 0,0
15.10.2018 10:00:00 20,3 8,6 16,3 5 3 11 6 N 1014,7 36 0,0
15.10.2018 09:00:00 17,2 8,6 12,9 6 4 13 7 N 1013,9 20 0,0
15.10.2018 08:00:00 14,3 9,5 12,5 6 4 13 7 N 1014,0 17 0,0
15.10.2018 07:00:00 13,9 10,1 12,8 7 4 12 6 N 1014,1 20 0,0
15.10.2018 06:00:00 14,6 10,2 13,5 8 4 12 6 N 1014,4 20 0,0
15.10.2018 05:00:00 14,4 10,4 13,4 6 3 14 8 N 1014,6 19 0,0
15.10.2018 04:00:00 14,3 10,7 13,3 8 4 13 7 N 1014,8 20 0,0
15.10.2018 03:00:00 14,3 11,3 13,3 5 3 12 7 N 1015,3 16 0,0
15.10.2018 02:00:00 14,9 11,9 14,1 8 4 13 7 N 1015,4 13 0,0
15.10.2018 01:00:00 15,4 12,3 14,5 6 4 14 8 N 1015,6 12 0,0
15.10.2018 00:00:00 16,0 12,9 15,2 7 4 13 7 N 1015,7 11 0,0
14.10.2018 23:00:00 16,6 13,3 15,7 6 3 14 8 N 1016,0 10 0,0
14.10.2018 22:00:00 17,1 14,2 16,3 7 4 14 8 NNE 1015,8 9 0,0
14.10.2018 21:00:00 17,8 14,7 16,7 7 4 13 7 N 1015,6 7 0,0
14.10.2018 20:00:00 18,4 14,5 17,0 6 4 10 5 N 1015,6 7 0,0
14.10.2018 19:00:00 20,4 14,3 18,2 3 2 18 10 N 1015,4 14 0,0
14.10.2018 18:00:00 21,3 14,5 20,5 8 5 29 15 ESE 1015,4 14 0,0
14.10.2018 17:00:00 21,7 13,8 21,5 12 7 31 17 ESE 1015,8 14 0,0
14.10.2018 16:00:00 22,2 14,3 23,1 8 5 31 17 ESE 1016,0 9 0,0
14.10.2018 15:00:00 22,5 14,3 23,3 16 9 32 18 ESE 1016,6 6 0,0
14.10.2018 14:00:00 23,5 13,9 25,7 13 7 31 17 ESE 1017,3 10 0,0
14.10.2018 13:00:00 23,2 12,2 26,5 12 7 29 16 E 1017,9 7 0,0
14.10.2018 12:00:00 22,9 13,4 25,3 10 5 21 12 ESE 1018,2 17 0,0
14.10.2018 11:00:00 22,4 13,2 19,1 6 4 13 7 ESE 1018,5 19 0,0
14.10.2018 10:00:00 17,2 12,5 15,2 6 4 13 7 N 1018,6 20 0,0
14.10.2018 09:00:00 14,0 11,5 12,0 7 4 16 9 NNE 1018,2 20 0,0
14.10.2018 08:00:00 12,5 10,7 11,8 9 5 16 8 N 1018,1 20 0,0
14.10.2018 07:00:00 12,7 10,8 11,9 8 4 18 10 N 1018,3 20 0,0
14.10.2018 06:00:00 12,7 10,8 11,7 10 6 17 9 NNE 1018,7 18 0,0
14.10.2018 05:00:00 12,5 10,7 11,6 7 4 15 8 N 1018,7 18 0,0
14.10.2018 04:00:00 12,7 10,8 11,8 7 4 17 9 N 1018,9 19 0,0
14.10.2018 03:00:00 13,2 10,7 12,1 10 5 17 9 N 1019,4 19 0,0
14.10.2018 02:00:00 13,3 10,7 12,4 8 4 16 9 N 1019,9 19 0,0
14.10.2018 01:00:00 13,8 10,8 12,9 9 5 20 11 N 1020,0 20 0,0
14.10.2018 00:00:00 14,2 11,0 13,2 9 5 19 10 N 1020,4 15 0,0
13.10.2018 23:00:00 14,5 11,3 13,4 6 4 16 8 N 1020,6 18 0,0
13.10.2018 22:00:00 15,0 11,9 13,7 6 3 13 7 N 1020,6 11 0,0
13.10.2018 21:00:00 16,2 12,7 14,5 4 2 11 6 N 1020,6 11 0,0
13.10.2018 20:00:00 18,2 12,6 16,4 7 4 13 7 NNE 1020,7 15 0,0
13.10.2018 19:00:00 20,7 12,7 17,9 3 2 11 6 NNE 1020,6 34 0,0
13.10.2018 18:00:00 22,9 11,9 24,3 5 3 13 7 E 1020,7 19 0,0
13.10.2018 17:00:00 23,7 13,8 27,8 9 5 16 9 SE 1020,9 20 0,0
13.10.2018 16:00:00 24,2 10,5 28,6 10 5 19 10 ESE 1021,4 20 0,0
13.10.2018 15:00:00 24,3 10,6 25,3 10 6 19 11 ENE 1021,9 42 0,0
13.10.2018 14:00:00 24,4 11,4 25,4 10 5 21 11 E 1022,3 19 0,0
13.10.2018 13:00:00 24,4 13,0 28,3 11 6 23 12 E 1023,2 19 0,0
13.10.2018 12:00:00 24,4 13,0 27,6 6 3 18 10 E 1023,4 16 0,0
13.10.2018 11:00:00 22,6 12,5 20,6 0 0 8 4 N 1023,7 20 0,0
13.10.2018 10:00:00 18,6 12,6 16,5 4 2 11 6 N 1023,6 42 0,0
13.10.2018 09:00:00 15,5 12,3 12,7 6 3 14 7 N 1023,4 58 0,0
13.10.2018 08:00:00 13,4 11,6 12,4 8 4 15 8 N 1023,1 60 0,0
13.10.2018 07:00:00 13,4 12,0 12,3 5 3 10 5 N 1023,1 56 0,0
13.10.2018 06:00:00 13,8 12,0 12,9 7 4 12 7 N 1023,2 57 0,0
13.10.2018 05:00:00 13,9 12,3 12,9 8 4 13 7 N 1023,6 53 0,0
13.10.2018 04:00:00 13,9 12,5 12,9 7 4 14 7 N 1023,6 46 0,0
13.10.2018 03:00:00 14,2 12,6 13,3 7 4 11 6 N 1023,9 41 0,0
13.10.2018 02:00:00 14,7 12,7 13,5 7 4 11 6 N 1024,0 40 0,0
13.10.2018 01:00:00 15,2 12,9 13,7 6 4 11 6 N 1024,3 41 0,0
13.10.2018 00:00:00 15,6 12,9 14,3 6 3 13 7 N 1024,6 52 0,0
12.10.2018 23:00:00 15,9 13,2 14,4 7 4 12 7 N 1024,9 56 0,0
12.10.2018 22:00:00 16,3 13,4 14,4 7 4 12 7 N 1024,8 58 0,0
12.10.2018 21:00:00 16,7 13,6 15,4 6 3 10 5 N 1024,8 45 0,0
12.10.2018 20:00:00 18,0 13,7 16,5 6 3 10 5 N 1024,6 16 0,0
12.10.2018 19:00:00 20,3 14,0 17,3 0 0 6 4 N 1024,0 60 0,0
12.10.2018 18:00:00 22,9 11,9 25,0 4 2 10 5 S 1023,8 60 0,0
12.10.2018 17:00:00 24,0 12,3 27,3 7 4 15 8 S 1023,8 48 0,0
12.10.2018 16:00:00 24,6 12,2 31,1 9 5 13 7 SSE 1024,2 60 0,0
12.10.2018 15:00:00 24,7 11,3 25,6 8 4 15 8 SSE 1024,5 60 0,0
12.10.2018 14:00:00 24,7 12,3 26,0 8 5 19 11 S 1024,5 19 0,0
12.10.2018 13:00:00 24,6 12,5 30,5 10 5 18 10 S 1024,8 56 0,0
12.10.2018 12:00:00 24,2 12,8 27,1 5 3 14 8 ENE 1024,9 16 0,0
12.10.2018 11:00:00 22,2 15,8 21,9 5 3 12 7 N 1024,9 20 0,0
12.10.2018 10:00:00 18,9 15,9 16,3 6 4 14 8 N 1024,6 13 0,0
12.10.2018 09:00:00 16,3 15,0 15,6 3 2 9 5 N 1023,9 28 0,0
12.10.2018 08:00:00 16,2 15,1 15,4 5 3 10 5 N 1023,3 39 0,0
12.10.2018 07:00:00 16,2 15,1 15,5 5 3 13 7 N 1023,0 14 0,0
12.10.2018 06:00:00 16,2 15,4 15,4 6 4 11 6 N 1022,7 20 0,0
12.10.2018 05:00:00 16,0 15,2 15,3 4 2 12 6 N 1022,2 19 0,0
12.10.2018 04:00:00 16,8 16,0 16,3 9 5 16 8 NNE 1022,2 39 0,0
12.10.2018 03:00:00 16,9 16,1 15,9 8 4 14 8 N 1022,0 4,9 0,0
12.10.2018 02:00:00 17,2 16,2 16,1 2 1 10 5 NW 1022,0 18 0,0
12.10.2018 01:00:00 17,6 16,6 17,1 5 3 12 7 NNE 1021,8 11 0,0
12.10.2018 00:00:00 17,6 16,8 17,2 5 3 9 5 N 1021,8 12 0,0
11.10.2018 23:00:00 17,9 17,1 17,6 4 2 10 5 NNW 1021,4 10 0,0
11.10.2018 22:00:00 18,2 17,2 17,8 5 3 11 6 NNE 1020,7 10 0,0
11.10.2018 21:00:00 18,4 17,2 17,9 3 2 5 3 N 1020,3 19 0,0
11.10.2018 20:00:00 18,8 17,6 18,3 3 2 6 4 E 1019,8 10 0,0
11.10.2018 19:00:00 19,2 17,7 18,6 4 2 11 6 NNE 1019,1 16 0,0
11.10.2018 18:00:00 19,5 17,5 18,8 4 2 13 7 NE 1018,4 60 0,0
11.10.2018 17:00:00 19,4 17,5 18,7 2 1 10 6 E 1018,1 30 1,6
11.10.2018 16:00:00 18,8 17,5 18,3 5 3 11 6 N 1017,9 2,6 2,6
11.10.2018 15:00:00 19,1 17,2 18,6 5 3 10 5 N 1017,4 12 0,6
11.10.2018 14:00:00 19,3 15,8 18,9 4 2 14 8 N 1017,2 9 0,0
11.10.2018 13:00:00 18,5 15,9 17,9 5 3 17 9 N 1017,4 13 0,0
11.10.2018 12:00:00 18,7 15,9 17,8 8 4 13 7 N 1017,7 20 0,6
11.10.2018 11:00:00 19,0 16,0 18,6 0 0 5 3 N 1017,2 10 0,0
11.10.2018 10:00:00 18,2 16,7 17,7 0 0 9 5 N 1016,5 7 0,0
11.10.2018 09:00:00 17,9 16,4 16,7 6 3 11 6 N 1015,6 11 0,0
11.10.2018 08:00:00 17,7 16,0 16,7 2 1 22 12 E 1015,3 60 0,8

tt = temperature
td = dewpoint
tt 5cm = temperature 5cm
ff = wind speed
fx = gusts
dd = wind direction
ppp = reduced air pressure
vv = visibility
rr = precipitation

Next stations